Location: Dalton
(34.7700°N, 84.9700°W)
Time: 01:31:37
(UTC-04:00)

Envisat - Pass Details

Date: 11 October 2017
Orbit: 764 x 766 km, 98.2° (Epoch: 18 October)

Event Time Altitude Azimuth Distance (km) Brightness Sun altitude
Exits shadow 22:10:56 22° 319° (NW) 1,640 5.1 -37.5°
Drops below altitude 10° 22:12:51 10° 332° (NNW) 2,305 5.9 -37.9°
Sets 22:15:18 0° 339° (NNW) 3,235 6.7 -38.4°
